This is the latest recevied weather packets stored in our database for station/object SR5NLK-1. If no packets are shown the sender has not sent any weather packets the latest 10 day(s).
| Time | Temp. | Humidity | Pressure | Rain* | Wind** | Luminosity | Snow |
|---|---|---|---|---|---|---|---|
| 1787486442 | 20.56° C | 53% | 1062.6 hPa | 0 mm | - | - | - |
| 1787486409 | 20.56° C | 53% | 1062.6 hPa | 0 mm | - | - | - |
| 1787486111 | 20° C | 55% | 1078.4 hPa | 0 mm | - | - | - |
| 1787485809 | 20° C | 55% | 1084.7 hPa | 0 mm | - | - | - |
| 1787485509 | 20° C | 55% | 1053.2 hPa | 0 mm | - | - | - |
| 1787485208 | 20.56° C | 54% | 1043.8 hPa | 0 mm | - | - | - |
| 1787484909 | 20.56° C | 54% | 1056.4 hPa | 0 mm | - | - | - |
| 1787484609 | 20° C | 54% | 1065.8 hPa | 0 mm | - | - | - |
| 1787484309 | 20° C | 53% | 1050.1 hPa | 0 mm | - | - | - |
| 1787484009 | 20.56° C | 51% | 1072 hPa | 0 mm | - | - | - |
| 1787483709 | 21.11° C | 50% | 1053.2 hPa | 0 mm | - | - | - |
| 1787483452 | 21.67° C | 50% | 1053.2 hPa | 0 mm | - | - | - |
| 1787483409 | 21.67° C | 50% | 1053.2 hPa | 0 mm | - | - | - |
| 1787483228 | 21.67° C | 53% | 1040.6 hPa | 0 mm | - | - | - |
| 1787483109 | 21.11° C | 53% | 1090.9 hPa | 0 mm | - | - | - |
| 1787482842 | 21.11° C | 53% | 1078.4 hPa | 0 mm | - | - | - |
| 1787482809 | 21.11° C | 53% | 1078.4 hPa | 0 mm | - | - | - |
| 1787482509 | 21.11° C | 54% | 1069 hPa | 0 mm | - | - | - |
| 1787482209 | 20.56° C | 54% | 1046.9 hPa | 0 mm | - | - | - |
| 1787481909 | 21.11° C | 53% | 1043.8 hPa | 0 mm | - | - | - |
| 1787481642 | 21.67° C | 53% | 1059.5 hPa | 0 mm | - | - | - |
| 1787481609 | 21.67° C | 53% | 1059.5 hPa | 0 mm | - | - | - |
| 1787481309 | 21.67° C | 54% | 1075.2 hPa | 0 mm | - | - | - |
| 1787481248 | 21.67° C | 55% | 1069 hPa | 0 mm | - | - | - |
| 1787481040 | 21.11° C | 54% | 1056.4 hPa | 0 mm | - | - | - |
* Rain latest hour (hover to see other rain measurements)
** Current wind speed in m/s (hover to see current wind gust speed)